Location: *
(33.8649°S, 62.1526°E)
Time: 12:54:02
(UTC+00:00)

Cosmos 2219 Rocket - Pass Details

Date: 17 January 2021
Orbit: 828 x 846 km, 71.0° (Epoch: 02 March)

Event Time Altitude Azimuth Distance (km) Brightness Sun altitude
Rises 22:44:20 0° 198° (SSW) 3,432 5.8 -23.2°
Reaches altitude 10° 22:46:50 10° 195° (SSW) 2,488 5.0 -22.9°
Maximum altitude 22:52:31 66° 112° (ESE) 920 2.5 -22.1°
Drops below altitude 10° 22:58:06 10° 30° (NNE) 2,447 4.4 -21.3°
Sets 23:00:32 0° 27° (NNE) 3,370 5.1 -20.9°
